Probability
0 0 0 0 0 0 0 0 0 0 0 0 0 2 4 8 13 17 16 15 15 13 12 14 14 12 11 9 4 1 0 0 0 0 0 1 2 2 2 4 5 5 4 3
0 0 0 0 0 0 0 0 0 0 0 0 0 2 4 7 12 18 17 15 14 12 12 15 16 14 13 11 6 2 1 0 0 0 1 1 1 1 2 4 4 4 3 3
0 0 0 0 0 0 0 0 0 0 0 0 0 1 3 6 11 15 16 15 14 13 14 17 18 17 17 14 9 5 2 2 1 1 2 2 1 0 1 2 3 2 2 1
0 0 0 0 0 0 0 0 0 0 0 0 0 1 3 6 9 12 14 14 16 16 17 18 19 19 19 17 13 9 5 4 3 3 3 3 1 0 0 1 1 1 1 1
0 0 0 0 0 0 0 0 0 0 0 0 0 0 2 5 8 12 14 16 18 19 19 19 21 22 21 19 18 13 9 8 7 6 4 2 1 0 0 0 0 0 1 2
0 0 0 0 0 0 0 0 0 0 0 0 0 0 1 4 7 11 16 19 22 21 19 19 22 25 24 22 20 16 13 12 12 11 7 2 0 0 0 1 0 0 1 2
0 0 0 0 0 0 0 0 0 0 0 0 0 0 1 2 5 9 15 20 23 23 20 19 23 27 28 26 22 18 15 14 13 13 10 4 1 0 0 0 0 1 2 3
0 0 0 0 0 0 0 0 0 0 0 0 0 0 1 3 5 9 15 20 23 23 20 19 22 25 27 28 25 20 16 12 10 11 10 7 3 1 0 0 1 2 2 3
0 0 0 0 0 0 0 0 0 0 0 0 0 1 3 5 6 10 16 21 24 24 22 19 19 19 21 25 26 21 17 13 10 9 9 8 5 2 1 1 2 4 4 4
0 0 0 0 0 0 0 0 0 0 0 0 0 0 2 6 9 13 18 22 24 24 21 18 16 16 18 22 23 21 18 16 13 12 11 9 7 5 4 4 5 7 7 6
0 0 0 0 0 0 0 0 0 0 0 0 0 0 2 7 12 15 18 20 22 21 18 14 13 16 18 19 20 20 18 16 15 14 13 11 10 9 8 8 9 9 9 9
0 0 0 0 0 0 0 0 0 0 0 0 0 1 4 9 13 16 17 19 18 17 14 11 13 16 16 16 18 19 19 16 15 15 14 13 13 13 12 10 11 11 12 13
0 0 0 0 0 0 0 0 0 0 0 0 0 3 7 11 14 16 17 18 17 14 12 12 15 16 15 14 16 18 19 17 16 16 16 15 16 16 14 11 12 13 15 16
0 0 0 0 0 0 0 0 0 0 0 0 1 5 11 13 15 18 20 21 19 16 15 15 16 16 16 15 16 17 18 19 18 18 19 19 18 17 16 15 15 16 17 17
0 0 0 0 0 0 0 0 0 0 0 0 2 8 13 15 17 21 25 25 24 20 19 18 16 17 18 18 17 16 17 18 18 18 20 20 18 17 18 19 19 19 20 20
0 0 0 0 0 0 0 0 0 0 0 0 3 9 14 16 19 25 29 30 27 23 21 19 18 19 20 21 21 18 17 17 18 19 19 18 16 16 18 19 20 21 22 22
0 0 0 0 0 0 0 0 1 2 2 2 5 12 17 20 23 26 30 32 28 24 21 21 21 22 22 22 22 21 19 19 20 20 20 18 16 15 16 17 18 20 21 20
0 0 0 0 0 0 0 1 3 4 7 8 11 18 22 24 25 26 28 28 26 23 22 21 22 22 22 21 21 22 22 23 24 24 22 20 18 16 15 14 15 17 19 18
0 0 0 0 0 0 1 2 3 7 12 16 19 24 26 26 25 24 23 23 22 21 20 20 21 22 21 20 21 22 22 23 25 25 22 20 20 19 17 15 14 15 17 17
0 0 0 0 0 0 1 3 5 10 15 20 24 27 26 24 23 21 19 18 17 17 18 19 20 22 22 21 21 21 20 21 23 22 20 19 20 22 21 17 14 14 16 16
0 0 0 0 0 0 2 6 9 12 16 22 25 24 23 22 21 20 18 16 14 15 17 19 21 23 24 23 22 20 18 19 20 21 21 19 20 21 21 17 14 14 15 15
0 0 0 0 0 0 2 7 10 11 15 20 22 21 21 22 23 22 19 16 14 15 16 18 20 23 24 24 23 20 18 17 19 21 21 20 18 18 17 15 13 13 14 14
0 0 0 1 1 2 4 7 9 10 14 18 20 21 22 23 21 20 18 15 14 14 15 17 20 22 23 22 22 19 17 15 16 17 19 19 18 16 13 11 11 11 11 12
0 0 2 4 4 5 6 7 8 11 15 17 19 21 21 19 17 16 14 13 13 13 14 15 17 18 19 19 18 16 13 11 12 13 14 16 16 14 11 8 7 7 8 8
0 0 3 6 7 6 6 7 9 13 15 17 18 19 18 15 13 12 11 10 10 11 12 12 12 13 14 15 15 12 9 9 10 11 12 14 14 13 10 6 4 3 3 4
0 0 2 5 6 5 5 6 10 13 15 15 17 17 15 12 10 9 9 8 8 8 9 9 10 11 11 11 11 9 6 8 10 11 12 14 14 13 10 7 4 2 1 1
Wind_Speed
2 2 4 8 7 6 3 2 3 4 2 3 5 6 9 9 10 11 10 10 10 9 8 9 9 9 8 6 5 4 4 3 2 2 1 2 2 2 2 3 4 5 5 4
2 5 10 7 5 3 3 2 3 4 3 3 4 5 7 9 12 13 13 12 12 10 9 9 8 8 8 7 6 5 4 4 3 2 2 2 2 2 2 2 3 4 5 5
6 8 5 5 6 4 4 4 4 3 2 3 4 1 3 5 6 7 10 11 12 13 13 11 10 9 9 8 7 6 5 4 3 2 2 1 1 1 0 1 2 3 4 5
6 7 5 4 6 4 5 7 4 4 3 2 3 2 5 4 4 7 8 9 11 11 11 11 11 10 10 9 8 6 5 4 4 3 3 3 2 2 2 2 2 3 4 4
6 4 4 6 7 5 7 4 3 2 2 2 2 2 6 2 4 7 9 10 11 12 12 12 12 12 11 10 8 6 5 4 3 3 4 3 2 1 1 1 1 1 2 3
8 6 4 6 6 4 2 3 5 5 5 2 4 3 5 5 9 8 8 9 10 11 11 10 9 9 8 8 7 7 6 5 4 4 3 3 3 2 2 1 1 1 1 2
8 7 5 3 3 4 3 5 5 6 5 4 3 2 7 7 6 8 9 8 9 9 9 9 9 9 9 9 9 8 7 6 5 4 4 3 3 3 3 2 2 1 1 1
3 8 5 3 5 5 3 9 8 5 4 4 3 3 7 4 4 6 7 7 8 8 8 9 10 11 11 10 10 8 8 6 5 4 3 3 2 2 2 2 2 2 2 2
5 7 6 4 4 7 3 3 8 8 2 0 3 3 4 2 3 5 6 7 8 9 9 8 8 8 9 9 10 10 8 6 5 4 4 3 2 2 2 2 2 2 2 2
6 5 8 6 1 1 6 6 6 5 4 2 3 3 4 4 4 5 6 7 7 7 7 7 7 7 7 8 8 8 7 7 6 6 5 4 3 3 2 2 2 2 2 2
5 4 7 4 1 3 0 2 4 4 6 6 3 7 7 9 9 9 7 7 8 8 8 7 6 6 6 6 7 7 7 6 6 6 4 4 3 3 3 3 3 2 2 2
3 5 4 7 6 4 4 5 7 5 3 5 4 8 4 7 8 8 7 6 7 7 6 6 5 5 6 6 6 6 7 7 6 5 5 4 3 3 3 3 3 3 3 3
3 6 2 8 9 6 1 2 4 5 4 4 4 7 2 4 5 6 7 6 6 7 6 5 5 5 5 5 5 5 6 6 6 5 4 3 3 2 3 3 3 3 3 2
5 5 6 7 7 4 4 4 1 5 4 4 6 6 2 3 4 4 5 6 6 6 6 6 5 5 5 5 5 4 4 4 5 5 4 4 3 3 3 3 3 3 2 2
5 3 2 4 5 2 3 5 3 2 6 7 7 7 8 8 8 8 7 7 7 6 6 5 5 4 4 4 3 3 2 3 4 4 4 4 4 3 3 3 2 2 3 3
4 2 1 4 4 3 4 4 2 2 2 4 5 5 5 5 6 6 7 8 8 7 7 6 5 5 4 4 3 3 2 3 3 4 4 3 3 3 3 3 2 2 2 3
1 3 2 3 5 4 4 4 1 0 0 5 5 5 4 5 7 8 8 8 8 7 6 6 6 6 5 4 4 3 2 2 3 3 3 2 2 2 3 2 2 2 2 2
5 3 3 1 2 3 8 4 2 4 2 2 4 5 8 8 7 5 6 8 7 6 6 6 6 5 4 3 2 2 3 2 2 2 2 2 2 2 2 2 2 2 2 2
7 7 4 3 2 5 5 3 1 3 2 2 5 5 5 6 6 3 2 6 7 7 6 5 5 5 4 4 4 2 2 3 2 2 2 2 2 2 2 3 3 2 2 2
3 5 5 4 3 5 5 5 2 6 1 3 4 6 5 5 4 3 2 4 5 5 4 4 4 4 5 4 5 4 2 2 2 2 3 3 3 3 3 3 3 2 2 2
3 2 3 4 4 6 5 5 3 3 5 3 2 4 4 3 5 5 4 4 5 5 5 5 5 4 4 4 4 4 2 3 4 3 2 2 3 3 3 3 2 2 1 1
3 2 2 3 3 6 4 2 3 5 3 2 2 2 3 3 3 5 5 5 5 4 4 5 5 3 3 4 4 3 2 3 2 2 1 2 2 2 2 2 2 2 2 1
2 5 5 5 6 5 1 2 3 3 2 1 2 2 4 5 6 5 4 5 5 4 4 3 5 4 2 3 4 3 3 1 1 1 1 1 1 1 2 3 2 1 1 2
4 1 2 1 1 1 1 1 1 2 2 1 3 5 5 5 6 6 5 5 4 3 3 3 4 4 2 2 2 3 2 1 2 1 1 1 1 1 1 1 2 2 2 2
4 1 1 1 2 1 2 1 1 1 2 2 2 4 6 6 6 6 6 5 3 3 2 3 4 3 2 2 1 2 2 2 2 2 1 1 1 2 1 1 2 2 3 4
3 3 3 4 5 3 4 2 1 2 3 3 3 2 3 4 5 5 5 4 4 4 3 3 3 2 2 1 1 2 1 2 2 2 2 2 2 2 2 2 1 2 3 3
Wind_Direction
238 115 225 229 211 209 219 239 274 272 249 122 130 148 168 168 164 165 165 166 163 166 161 154 154 155 151 150 153 162 158 163 150 148 156 158 184 196 191 199 194 191 191 188
4 251 237 233 241 229 217 239 267 283 259 133 150 170 187 182 181 178 172 173 169 161 155 161 160 157 159 162 164 168 170 168 170 178 181 182 182 193 194 199 192 196 191 190
216 246 243 237 255 258 253 221 220 213 324 46 103 26 215 209 187 179 176 174 171 167 166 168 167 168 167 170 171 171 175 172 175 169 141 128 89 43 150 191 200 208 198 196
251 253 258 253 253 219 250 240 206 173 119 275 128 191 260 215 197 188 181 178 179 173 168 169 170 173 173 176 175 172 172 172 174 164 147 149 166 186 202 193 203 215 204 202
262 245 247 254 245 215 231 228 175 162 116 15 9 128 272 193 200 206 192 185 183 177 173 172 176 176 174 174 174 171 169 169 172 170 163 158 162 177 167 145 171 222 220 213
258 261 225 230 248 229 220 44 30 47 67 12 260 163 262 217 208 202 192 184 181 176 172 172 173 166 168 170 169 167 167 173 175 172 170 170 168 158 142 157 182 229 241 224
302 292 267 233 265 305 83 82 29 4 13 259 274 144 245 233 198 178 170 172 167 167 169 169 167 169 171 172 172 171 170 177 179 175 180 182 182 168 165 181 189 200 214 214
268 289 271 235 193 205 190 139 155 190 217 269 319 226 257 248 172 155 148 151 150 155 167 175 178 178 177 175 172 170 172 176 176 177 186 181 179 175 182 186 189 197 212 218
204 259 275 253 213 167 174 181 170 146 165 188 276 279 323 30 116 139 140 140 152 156 163 165 173 177 175 174 172 172 168 171 176 180 177 182 185 183 188 196 200 216 230 226
178 255 284 288 25 229 167 159 97 113 150 233 277 254 226 212 183 158 149 149 152 147 152 162 167 172 176 173 171 167 166 172 177 184 188 188 198 196 190 184 208 226 240 246
160 187 294 336 187 225 154 110 116 127 152 159 220 260 220 194 180 166 164 156 152 151 155 161 167 172 169 162 164 170 173 171 179 186 188 188 195 198 194 202 221 227 233 233
172 142 255 269 265 210 169 174 146 151 225 169 170 259 256 179 165 154 153 151 149 148 149 151 155 152 154 160 163 172 179 181 187 187 185 194 196 194 199 218 231 231 231 229
119 108 46 335 337 353 36 169 155 145 134 156 170 253 296 139 141 146 143 142 136 131 130 133 137 142 151 154 161 168 179 184 185 182 181 193 197 197 208 225 233 230 229 236
103 112 157 199 229 255 296 291 204 129 149 193 209 212 249 169 150 149 140 138 132 132 138 141 145 152 155 151 152 162 174 175 171 171 174 189 207 204 208 220 226 225 225 231
88 119 197 233 245 256 271 283 278 204 186 183 208 189 203 189 171 162 148 142 136 139 143 146 147 152 147 139 134 141 153 167 173 171 174 189 210 211 202 206 216 218 223 234
64 114 31 318 310 330 308 306 303 252 210 178 165 209 210 168 138 136 147 148 147 151 154 152 148 143 144 141 136 144 151 165 157 166 172 185 195 193 195 204 205 214 225 228
73 109 85 283 309 5 302 276 231 2 227 162 182 212 159 142 148 160 159 151 155 155 156 160 163 158 163 165 152 158 173 165 155 159 165 170 180 193 206 200 187 207 225 227
152 125 136 213 14 243 246 254 160 112 23 112 130 146 151 152 158 157 153 150 149 152 155 164 160 152 153 150 135 170 154 133 142 153 167 180 181 198 208 195 204 216 212 220
163 149 139 139 202 265 289 321 63 115 357 4 117 121 128 123 88 64 141 150 157 158 160 163 161 154 149 145 146 144 121 121 142 177 205 206 196 197 207 210 215 216 210 229
90 125 138 156 186 231 255 298 298 103 333 302 125 129 130 116 122 220 193 139 135 129 147 159 149 137 144 156 147 132 142 151 183 208 224 216 203 202 213 214 216 217 208 228
35 53 151 181 210 247 263 296 30 124 221 262 124 135 137 149 189 186 154 130 134 138 148 143 131 137 156 154 136 137 165 210 213 202 215 215 210 212 209 203 206 202 203 223
167 156 186 161 195 248 283 36 126 207 217 159 125 126 118 131 124 130 133 128 123 121 123 126 127 135 138 138 137 153 214 235 219 196 210 229 225 225 204 191 196 185 178 188
177 189 181 181 211 242 279 160 195 167 148 186 152 150 143 137 143 145 135 131 128 124 119 120 126 122 118 136 146 171 230 235 192 167 221 249 235 225 184 173 182 177 167 176
301 331 115 110 249 273 18 69 76 100 131 162 153 147 140 142 149 146 140 132 127 123 124 117 117 123 134 155 159 185 210 192 160 185 223 242 217 229 222 204 193 184 189 186
264 322 83 154 241 2 341 339 122 76 80 89 133 142 144 140 150 148 143 139 137 129 122 129 135 139 161 177 187 211 203 170 170 193 211 220 225 215 212 225 222 209 221 205
247 196 176 224 232 203 241 243 174 121 121 119 104 92 112 127 143 144 145 148 144 135 124 121 128 139 165 180 225 245 227 174 169 192 213 214 224 215 199 198 262 281 244 227